User: anonymous   Login
Location: Unspecified
(0.0000°N, 0.0000°E)
Time: 22:24:54
(UTC+00:00)
Language:

OBJECT E - Orbit

View from above orbital plane
View from above orbital plane
View from above satellite
View from above satellite

Ground track
Ground track

The orbit is defined by the following mean orbital elements,

1 59777U          26145.31324222 +.00000000 +00000-0 +54884-3 0 00007
2 59777  97.6543 277.4241 0006896 222.3605 137.7107 15.35921654    04
Epoch (UTC): 25 May 2026 07:31:04
Eccentricity: 0.0006896
inclination: 97.6543°
perigee height: 453 km
apogee height: 463 km
right ascension of ascending node: 277.4241°
argument of perigee: 222.3605°
revolutions per day: 15.35921654
mean anomaly at epoch: 137.7107°

The dashed part of the orbit path shows where the satellite is in the earth's shadow,  

DLR